User: anonymous   Login
Location: Newark
(45.8944°N, 12.5886°E)
Time: 00:29:29
(UTC+00:00)
Language:

nSIGHT-1 - Orbit

View from above orbital plane
View from above orbital plane
View from above satellite
View from above satellite

Ground track
Ground track

The orbit data is extracted from the following two-line orbital elements,

1 42726U 98067MF  20093.63046236  .00257984  39558-4  45623-3 0  9997
2 42726  51.6248 250.7947 0006858 284.7336  75.2914 16.01396858163514
Epoch (UTC): 02 April 2020 15:07:51
Eccentricity: 0.0006858
inclination: 51.6248°
perigee height: 266 km
apogee height: 275 km
right ascension of ascending node: 250.7947°
argument of perigee: 284.7336°
revolutions per day: 16.01396858
mean anomaly at epoch: 75.2914°
orbit number at epoch: 16351

The dashed part of the orbit path shows where the satellite is in the earth's shadow,  

DLR